Iron Mountain, MI

9:48 PM CST on December 12, 2017 (GMT -0600)
Ford

Weather History for KIMT - April, 2013

Change the Weather History Date:

Sunday, April 21, 2013

  Actual Average Record
Temperature  
Mean Temperature 32 °F -  
Max Temperature 45 °F 58 °F 85 °F (1987)
Min Temperature 21 °F 33 °F 1 °F (1937)
Degree Days  
Heating Degree Days 34    
Moisture  
Dew Point 22 °F    
Average Humidity 67    
Maximum Humidity 88    
Minimum Humidity 47    
Precipitation  
Precipitation 0.00 in - - ()
Sea Level Pressure  
Sea Level Pressure 30.40 in    
Wind  
Wind Speed 8 mph (SSE)    
Max Wind Speed 22 mph    
Max Gust Speed 28 mph    
Visibility 10 miles    
Events      
Averages and records for this station are not official NWS values.
T = Trace of Precipitation, MM = Missing Value Source: NWS Daily Summary

Daily Weather History Graph

Daily Weather History Graph

Search for Another Location

Airport or City:

Trip Planner

Search our weather history database for the weather conditions in past years. The results will help you decide how hot, cold, wet, or windy it might be!

Date:

Astronomy

Apr. 21, 2013 Rise Set
Actual Time 5:55 AM CDT 7:47 PM CDT
Civil Twilight 5:23 AM CDT 8:19 PM CDT
Nautical Twilight 4:44 AM CDT 8:58 PM CDT
Astronomical Twilight 4:02 AM CDT 9:41 PM CDT
Moon 3:19 PM CDT (4/21) 3:31 AM CDT (4/21)
Length of Visible Light 14h 55m
Length of Day
13h 51m
Waxing Gibbous, 80% of the Moon is Illuminated
Apr 21
Waxing Gibbous
Apr 25
Full
May 2
Last Quarter
May 9
New
May 17
First Quarter

Hourly Weather History & Observations

Time (CDT) Temp. Windchill Dew Point Humidity Pressure Visibility Wind Dir Wind Speed Gust Speed Precip Events Conditions
12:54 AM 25.0 °F 19.3 °F 16.0 °F 69% 30.44 in 10.0 mi ESE 4.6 mph - N/A   Clear
1:54 AM 24.1 °F 19.7 °F 16.0 °F 71% 30.45 in 10.0 mi SE 3.5 mph - N/A   Clear
2:54 AM 23.0 °F - 16.0 °F 74% 30.45 in 10.0 mi Calm Calm - N/A   Clear
3:54 AM 21.0 °F 16.2 °F 17.1 °F 85% 30.46 in 10.0 mi South 3.5 mph - N/A   Clear
4:54 AM 21.0 °F - 17.1 °F 85% 30.47 in 10.0 mi Calm Calm - N/A   Clear
5:54 AM 21.0 °F 14.6 °F 18.0 °F 88% 30.49 in 10.0 mi SSE 4.6 mph - N/A   Clear
6:54 AM 24.1 °F 17.0 °F 21.0 °F 88% 30.50 in 10.0 mi SSE 5.8 mph - N/A   Clear
7:54 AM 27.0 °F 19.5 °F 23.0 °F 85% 30.51 in 10.0 mi SE 6.9 mph - N/A   Mostly Cloudy
8:54 AM 32.0 °F 24.2 °F 24.1 °F 73% 30.51 in 10.0 mi SSE 9.2 mph - N/A   Mostly Cloudy
9:54 AM 36.0 °F 26.7 °F 23.0 °F 59% 30.49 in 10.0 mi SSE 15.0 mph 21.9 mph N/A   Mostly Cloudy
10:54 AM 39.9 °F 32.1 °F 23.0 °F 51% 30.48 in 10.0 mi South 13.8 mph 21.9 mph N/A   Overcast
11:54 AM 41.0 °F 32.2 °F 21.9 °F 47% 30.45 in 10.0 mi SSE 18.4 mph 27.6 mph N/A   Overcast
12:54 PM 42.1 °F 32.8 °F 23.0 °F 47% 30.42 in 10.0 mi SSE 21.9 mph 26.5 mph N/A   Overcast
1:54 PM 42.1 °F 34.9 °F 24.1 °F 49% 30.40 in 10.0 mi SSE 13.8 mph 26.5 mph N/A   Overcast
2:54 PM 39.9 °F 31.4 °F 21.9 °F 49% 30.38 in 10.0 mi SSE 16.1 mph 26.5 mph N/A   Overcast
3:54 PM 39.9 °F 30.8 °F 21.9 °F 49% 30.36 in 10.0 mi SSE 18.4 mph - N/A   Overcast
4:54 PM 39.0 °F 29.9 °F 23.0 °F 53% 30.35 in 10.0 mi SSE 17.3 mph 24.2 mph N/A   Overcast
5:54 PM 36.0 °F 28.5 °F 25.0 °F 64% 30.35 in 10.0 mi SSE 10.4 mph 26.5 mph N/A   Overcast
6:54 PM 34.0 °F 23.4 °F 21.9 °F 61% 30.32 in 10.0 mi SSE 17.3 mph 27.6 mph N/A   Overcast
7:54 PM 34.0 °F 25.0 °F 23.0 °F 64% 30.29 in 10.0 mi SSE 12.7 mph - N/A   Mostly Cloudy
8:54 PM 33.1 °F 24.4 °F 25.0 °F 72% 30.28 in 10.0 mi SE 11.5 mph - N/A   Scattered Clouds
9:54 PM 33.1 °F 24.9 °F 26.1 °F 75% 30.28 in 10.0 mi SSE 10.4 mph - N/A   Partly Cloudy
10:54 PM 34.0 °F 26.6 °F 26.1 °F 73% 30.25 in 10.0 mi SSE 9.2 mph - N/A   Overcast
11:54 PM 35.1 °F 27.9 °F 27.0 °F 72% 30.23 in 10.0 mi South 9.2 mph - 0.00 in   Overcast